Gauley Below the Meadow [ USA-WVR ]

Edit Gauge

Current Conditions

Reading of "n/a" = frozen gauge or gauge error.
Reading Trend Type Updated
2348 cfs 0 cfs/hr Flow 01h57m

Station Description

AW Gauge ID: 43451
Source: virtual
Station: 6192
Enabled yes
Description:Summersville Gauley + the Meadow.
Calculation:$flow=$gauge[8515]->getValue(GMETRIC_FLOW,120*60)+$gauge[51285]->getValue(GMETRIC_FLOW,60*120);
Data is courtesy of AW's Stream Team program. This data is calculated based on other gauges and information provided by the Stream Team. This data, and any river data, should be used with caution.

Information

Flow

Gauge History

Times listed in GMT 24h, ET and PT hours provided for convenience Graphs in GMT. Readings of "n/a" constitute a frozen gauge or gauge error.
Reading Updated (GMT) Eastern Pacific Comment
2347.80 11/22/2014 19:12:00 Nov 22 02:12 pm Nov 22 11:12 am
2347.80 11/22/2014 18:12:16 Nov 22 01:12 pm Nov 22 10:12 am
2357.80 11/22/2014 17:12:32 Nov 22 12:12 pm Nov 22 9:12 am
2305.80 11/22/2014 16:12:48 Nov 22 11:12 am Nov 22 8:12 am
2305.80 11/22/2014 15:13:04 Nov 22 10:13 am Nov 22 7:13 am
2050.70 11/22/2014 14:11:12 Nov 22 09:11 am Nov 22 6:11 am
2057.80 11/22/2014 13:11:28 Nov 22 08:11 am Nov 22 5:11 am
2050.24 11/22/2014 12:11:44 Nov 22 07:11 am Nov 22 4:11 am
2053.80 11/22/2014 11:12:00 Nov 22 06:12 am Nov 22 3:12 am
2046.24 11/22/2014 10:12:16 Nov 22 05:12 am Nov 22 2:12 am
2049.80 11/22/2014 09:12:32 Nov 22 04:12 am Nov 22 1:12 am
2053.80 11/22/2014 08:12:48 Nov 22 03:12 am Nov 22 12:12 am
2045.24 11/22/2014 07:13:04 Nov 22 02:13 am Nov 21 11:13 pm
2058.80 11/22/2014 06:11:12 Nov 22 01:11 am Nov 21 10:11 pm
2062.38 11/22/2014 05:11:28 Nov 22 12:11 am Nov 21 9:11 pm
2036.17 11/22/2014 04:11:44 Nov 21 11:11 pm Nov 21 8:11 pm
2038.17 11/22/2014 03:12:00 Nov 21 10:12 pm Nov 21 7:12 pm
2062.70 11/22/2014 02:12:16 Nov 21 09:12 pm Nov 21 6:12 pm
2054.17 11/22/2014 01:12:32 Nov 21 08:12 pm Nov 21 5:12 pm
2124.70 11/22/2014 00:12:48 Nov 21 07:12 pm Nov 21 4:12 pm
2124.70 11/21/2014 23:13:04 Nov 21 06:13 pm Nov 21 3:13 pm
2379.70 11/21/2014 22:11:12 Nov 21 05:11 pm Nov 21 2:11 pm
2699.24 11/21/2014 21:11:28 Nov 21 04:11 pm Nov 21 1:11 pm
2895.81 11/21/2014 20:11:44 Nov 21 03:11 pm Nov 21 12:11 pm
2787.19 11/21/2014 19:12:00 Nov 21 02:12 pm Nov 21 11:12 am
2786.81 11/21/2014 18:12:16 Nov 21 01:12 pm Nov 21 10:12 am
2709.01 11/21/2014 17:12:32 Nov 21 12:12 pm Nov 21 9:12 am
2699.19 11/21/2014 16:12:48 Nov 21 11:12 am Nov 21 8:12 am
2689.60 11/21/2014 15:13:04 Nov 21 10:13 am Nov 21 7:13 am
2668.60 11/21/2014 14:11:12 Nov 21 09:11 am Nov 21 6:11 am
2697.81 11/21/2014 13:11:28 Nov 21 08:11 am Nov 21 5:11 am
2683.01 11/21/2014 12:11:44 Nov 21 07:11 am Nov 21 4:11 am
2688.19 11/21/2014 11:12:00 Nov 21 06:12 am Nov 21 3:12 am
2685.19 11/21/2014 10:12:16 Nov 21 05:12 am Nov 21 2:12 am
2684.60 11/21/2014 09:12:32 Nov 21 04:12 am Nov 21 1:12 am
2683.60 11/21/2014 08:12:48 Nov 21 03:12 am Nov 21 12:12 am
2683.60 11/21/2014 07:13:04 Nov 21 02:13 am Nov 20 11:13 pm
2673.01 11/21/2014 06:11:12 Nov 21 01:11 am Nov 20 10:11 pm
2683.60 11/21/2014 05:11:28 Nov 21 12:11 am Nov 20 9:11 pm
2698.60 11/21/2014 04:11:44 Nov 20 11:11 pm Nov 20 8:11 pm
2750.60 11/21/2014 03:12:00 Nov 20 10:12 pm Nov 20 7:12 pm
2811.01 11/21/2014 01:12:32 Nov 20 08:12 pm Nov 20 5:12 pm
2929.01 11/21/2014 00:12:48 Nov 20 07:12 pm Nov 20 4:12 pm
2909.89 11/20/2014 23:13:04 Nov 20 06:13 pm Nov 20 3:13 pm
3078.01 11/20/2014 22:11:12 Nov 20 05:11 pm Nov 20 2:11 pm
3090.60 11/20/2014 21:11:28 Nov 20 04:11 pm Nov 20 1:11 pm
3098.60 11/20/2014 20:11:44 Nov 20 03:11 pm Nov 20 12:11 pm
3092.01 11/20/2014 19:12:00 Nov 20 02:12 pm Nov 20 11:12 am
3086.44 11/20/2014 18:12:16 Nov 20 01:12 pm Nov 20 10:12 am
3112.60 11/20/2014 17:12:32 Nov 20 12:12 pm Nov 20 9:12 am
2973.89 11/20/2014 16:12:48 Nov 20 11:12 am Nov 20 8:12 am
2993.01 11/20/2014 15:13:04 Nov 20 10:13 am Nov 20 7:13 am
2895.44 11/20/2014 14:11:12 Nov 20 09:11 am Nov 20 6:11 am
2836.89 11/20/2014 13:11:28 Nov 20 08:11 am Nov 20 5:11 am
2896.01 11/20/2014 12:11:44 Nov 20 07:11 am Nov 20 4:11 am
2816.89 11/20/2014 11:12:00 Nov 20 06:12 am Nov 20 3:12 am
2871.01 11/20/2014 10:12:16 Nov 20 05:12 am Nov 20 2:12 am
2872.44 11/20/2014 09:12:32 Nov 20 04:12 am Nov 20 1:12 am
2878.35 11/20/2014 08:12:48 Nov 20 03:12 am Nov 20 12:12 am
2907.01 11/20/2014 07:13:04 Nov 20 02:13 am Nov 19 11:13 pm
2970.44 11/20/2014 06:11:12 Nov 20 01:11 am Nov 19 10:11 pm
2999.44 11/20/2014 05:11:28 Nov 20 12:11 am Nov 19 9:11 pm
2968.31 11/20/2014 03:12:00 Nov 19 10:12 pm Nov 19 7:12 pm
2974.31 11/20/2014 02:12:16 Nov 19 09:12 pm Nov 19 6:12 pm
2984.31 11/20/2014 01:12:32 Nov 19 08:12 pm Nov 19 5:12 pm
2995.31 11/20/2014 00:12:48 Nov 19 07:12 pm Nov 19 4:12 pm
3033.44 11/19/2014 23:13:04 Nov 19 06:13 pm Nov 19 3:13 pm
3042.35 11/19/2014 22:11:12 Nov 19 05:11 pm Nov 19 2:11 pm
3090.60 11/19/2014 21:11:28 Nov 19 04:11 pm Nov 19 1:11 pm
3234.32 11/19/2014 20:11:44 Nov 19 03:11 pm Nov 19 12:11 pm
3258.13 11/19/2014 19:12:00 Nov 19 02:12 pm Nov 19 11:12 am
2771.26 11/19/2014 18:12:16 Nov 19 01:12 pm Nov 19 10:12 am
2810.45 11/19/2014 17:12:32 Nov 19 12:12 pm Nov 19 9:12 am
2800.63 11/19/2014 16:12:48 Nov 19 11:12 am Nov 19 8:12 am
2790.82 11/19/2014 15:13:04 Nov 19 10:13 am Nov 19 7:13 am
2771.26 11/19/2014 14:11:12 Nov 19 09:11 am Nov 19 6:11 am
2771.26 11/19/2014 13:11:28 Nov 19 08:11 am Nov 19 5:11 am
2781.03 11/19/2014 11:12:00 Nov 19 06:12 am Nov 19 3:12 am
2781.03 11/19/2014 10:12:16 Nov 19 05:12 am Nov 19 2:12 am
2771.26 11/19/2014 08:12:48 Nov 19 03:12 am Nov 19 12:12 am
2771.26 11/19/2014 04:11:44 Nov 18 11:11 pm Nov 18 8:11 pm
2771.26 11/19/2014 03:12:00 Nov 18 10:12 pm Nov 18 7:12 pm
2771.66 11/19/2014 02:12:16 Nov 18 09:12 pm Nov 18 6:12 pm
2772.36 11/19/2014 01:12:32 Nov 18 08:12 pm Nov 18 5:12 pm
2772.36 11/19/2014 00:12:48 Nov 18 07:12 pm Nov 18 4:12 pm
2767.00 11/18/2014 23:13:04 Nov 18 06:13 pm Nov 18 3:13 pm
2767.00 11/18/2014 22:11:12 Nov 18 05:11 pm Nov 18 2:11 pm
2783.76 11/18/2014 21:11:28 Nov 18 04:11 pm Nov 18 1:11 pm
2777.76 11/18/2014 20:11:44 Nov 18 03:11 pm Nov 18 12:11 pm
2784.76 11/18/2014 19:12:00 Nov 18 02:12 pm Nov 18 11:12 am
2773.00 11/18/2014 18:12:16 Nov 18 01:12 pm Nov 18 10:12 am
2776.76 11/18/2014 17:12:32 Nov 18 12:12 pm Nov 18 9:12 am
2793.42 11/18/2014 14:11:12 Nov 18 09:11 am Nov 18 6:11 am
2771.66 11/18/2014 13:11:28 Nov 18 08:11 am Nov 18 5:11 am
2098.40 11/18/2014 12:11:44 Nov 18 07:11 am Nov 18 4:11 am
2127.46 11/18/2014 11:12:00 Nov 18 06:12 am Nov 18 3:12 am
2119.86 11/18/2014 10:12:16 Nov 18 05:12 am Nov 18 2:12 am
2130.56 11/18/2014 09:12:32 Nov 18 04:12 am Nov 18 1:12 am
2128.56 11/18/2014 08:12:48 Nov 18 03:12 am Nov 18 12:12 am
2128.56 11/18/2014 07:13:04 Nov 18 02:13 am Nov 17 11:13 pm
2136.56 11/18/2014 05:11:28 Nov 18 12:11 am Nov 17 9:11 pm
2146.86 11/18/2014 04:11:44 Nov 17 11:11 pm Nov 17 8:11 pm
2164.86 11/18/2014 03:12:00 Nov 17 10:12 pm Nov 17 7:12 pm
2147.50 11/18/2014 01:12:32 Nov 17 08:12 pm Nov 17 5:12 pm
2218.50 11/18/2014 00:12:48 Nov 17 07:12 pm Nov 17 4:12 pm
2227.17 11/17/2014 23:13:04 Nov 17 06:13 pm Nov 17 3:13 pm
2292.17 11/17/2014 22:11:12 Nov 17 05:11 pm Nov 17 2:11 pm
2343.56 11/17/2014 21:11:28 Nov 17 04:11 pm Nov 17 1:11 pm
2389.56 11/17/2014 20:11:44 Nov 17 03:11 pm Nov 17 12:11 pm
2385.56 11/17/2014 19:12:00 Nov 17 02:12 pm Nov 17 11:12 am
2381.56 11/17/2014 18:12:16 Nov 17 01:12 pm Nov 17 10:12 am
2377.56 11/17/2014 17:12:32 Nov 17 12:12 pm Nov 17 9:12 am
2228.77 11/17/2014 16:12:48 Nov 17 11:12 am Nov 17 8:12 am
2220.34 11/17/2014 15:13:04 Nov 17 10:13 am Nov 17 7:13 am
2231.22 11/17/2014 14:11:12 Nov 17 09:11 am Nov 17 6:11 am
2220.77 11/17/2014 13:11:28 Nov 17 08:11 am Nov 17 5:11 am
2218.77 11/17/2014 12:11:44 Nov 17 07:11 am Nov 17 4:11 am
2223.22 11/17/2014 11:12:00 Nov 17 06:12 am Nov 17 3:12 am
2204.34 11/17/2014 10:12:16 Nov 17 05:12 am Nov 17 2:12 am
2221.22 11/17/2014 09:12:32 Nov 17 04:12 am Nov 17 1:12 am
2212.77 11/17/2014 08:12:48 Nov 17 03:12 am Nov 17 12:12 am
2221.22 11/17/2014 07:13:04 Nov 17 02:13 am Nov 16 11:13 pm
2210.77 11/17/2014 06:11:12 Nov 17 01:11 am Nov 16 10:11 pm
2202.34 11/17/2014 05:11:28 Nov 17 12:11 am Nov 16 9:11 pm
2210.77 11/17/2014 04:11:44 Nov 16 11:11 pm Nov 16 8:11 pm
2210.77 11/17/2014 03:12:00 Nov 16 10:12 pm Nov 16 7:12 pm
2210.77 11/17/2014 01:12:32 Nov 16 08:12 pm Nov 16 5:12 pm
2212.77 11/17/2014 00:12:48 Nov 16 07:12 pm Nov 16 4:12 pm
2212.77 11/16/2014 23:13:04 Nov 16 06:13 pm Nov 16 3:13 pm
2214.77 11/16/2014 22:11:12 Nov 16 05:11 pm Nov 16 2:11 pm
2223.22 11/16/2014 21:11:28 Nov 16 04:11 pm Nov 16 1:11 pm
2238.16 11/16/2014 20:11:44 Nov 16 03:11 pm Nov 16 12:11 pm
2229.68 11/16/2014 19:12:00 Nov 16 02:12 pm Nov 16 11:12 am
2236.16 11/16/2014 18:12:16 Nov 16 01:12 pm Nov 16 10:12 am
2212.77 11/16/2014 17:12:32 Nov 16 12:12 pm Nov 16 9:12 am
2393.53 11/16/2014 16:12:48 Nov 16 11:12 am Nov 16 8:12 am
2384.76 11/16/2014 15:13:04 Nov 16 10:13 am Nov 16 7:13 am
2336.53 11/16/2014 14:11:12 Nov 16 09:11 am Nov 16 6:11 am
2315.76 11/16/2014 13:11:28 Nov 16 08:11 am Nov 16 5:11 am
2340.53 11/16/2014 12:11:44 Nov 16 07:11 am Nov 16 4:11 am
2307.53 11/16/2014 11:12:00 Nov 16 06:12 am Nov 16 3:12 am
2293.76 11/16/2014 10:12:16 Nov 16 05:12 am Nov 16 2:12 am
2270.01 11/16/2014 08:12:48 Nov 16 03:12 am Nov 16 12:12 am
2287.53 11/16/2014 07:13:04 Nov 16 02:13 am Nov 15 11:13 pm
2276.31 11/16/2014 05:11:28 Nov 16 12:11 am Nov 15 9:11 pm
2219.76 11/16/2014 03:12:00 Nov 15 10:12 pm Nov 15 7:12 pm
2210.76 11/16/2014 02:12:16 Nov 15 09:12 pm Nov 15 6:12 pm
2219.53 11/16/2014 01:12:32 Nov 15 08:12 pm Nov 15 5:12 pm
2405.53 11/16/2014 00:12:48 Nov 15 07:12 pm Nov 15 4:12 pm
2412.53 11/15/2014 22:11:12 Nov 15 05:11 pm Nov 15 2:11 pm
2390.76 11/15/2014 21:11:28 Nov 15 04:11 pm Nov 15 1:11 pm
2318.53 11/15/2014 18:12:16 Nov 15 01:12 pm Nov 15 10:12 am
2187.53 11/15/2014 17:12:32 Nov 15 12:12 pm Nov 15 9:12 am
2187.53 11/15/2014 14:11:12 Nov 15 09:11 am Nov 15 6:11 am
2165.53 11/15/2014 13:11:28 Nov 15 08:11 am Nov 15 5:11 am
2173.53 11/15/2014 12:11:44 Nov 15 07:11 am Nov 15 4:11 am
2181.11 11/15/2014 11:12:00 Nov 15 06:12 am Nov 15 3:12 am
2163.76 11/15/2014 10:12:16 Nov 15 05:12 am Nov 15 2:12 am
2177.31 11/15/2014 09:12:32 Nov 15 04:12 am Nov 15 1:12 am
2174.53 11/15/2014 08:12:48 Nov 15 03:12 am Nov 15 12:12 am
2183.31 11/15/2014 07:13:04 Nov 15 02:13 am Nov 14 11:13 pm
2162.76 11/15/2014 06:11:12 Nov 15 01:11 am Nov 14 10:11 pm
2176.31 11/15/2014 05:11:28 Nov 15 12:11 am Nov 14 9:11 pm
2202.11 11/15/2014 03:12:00 Nov 14 10:12 pm Nov 14 7:12 pm
2198.11 11/15/2014 00:12:48 Nov 14 07:12 pm Nov 14 4:12 pm
2189.31 11/14/2014 23:13:04 Nov 14 06:13 pm Nov 14 3:13 pm
2206.11 11/14/2014 22:11:12 Nov 14 05:11 pm Nov 14 2:11 pm
2193.31 11/14/2014 21:11:28 Nov 14 04:11 pm Nov 14 1:11 pm
2184.53 11/14/2014 20:11:44 Nov 14 03:11 pm Nov 14 12:11 pm
2206.31 11/14/2014 19:12:00 Nov 14 02:12 pm Nov 14 11:12 am
2206.11 11/14/2014 18:12:16 Nov 14 01:12 pm Nov 14 10:12 am
2190.11 11/14/2014 17:12:32 Nov 14 12:12 pm Nov 14 9:12 am
2181.31 11/14/2014 15:13:04 Nov 14 10:13 am Nov 14 7:13 am
2207.75 11/14/2014 14:11:12 Nov 14 09:11 am Nov 14 6:11 am
2582.87 11/14/2014 13:11:28 Nov 14 08:11 am Nov 14 5:11 am
2610.87 11/14/2014 12:11:44 Nov 14 07:11 am Nov 14 4:11 am
2575.42 11/14/2014 11:12:00 Nov 14 06:12 am Nov 14 3:12 am
2571.98 11/14/2014 10:12:16 Nov 14 05:12 am Nov 14 2:12 am
2556.56 11/14/2014 08:12:48 Nov 14 03:12 am Nov 14 12:12 am
2575.42 11/14/2014 07:13:04 Nov 14 02:13 am Nov 13 11:13 pm
2577.98 11/14/2014 06:11:12 Nov 14 01:11 am Nov 13 10:11 pm
2574.56 11/14/2014 05:11:28 Nov 14 12:11 am Nov 13 9:11 pm
2562.56 11/14/2014 04:11:44 Nov 13 11:11 pm Nov 13 8:11 pm
2575.56 11/14/2014 03:12:00 Nov 13 10:12 pm Nov 13 7:12 pm
2586.56 11/14/2014 02:12:16 Nov 13 09:12 pm Nov 13 6:12 pm
2601.56 11/14/2014 01:12:32 Nov 13 08:12 pm Nov 13 5:12 pm
2696.98 11/14/2014 00:12:48 Nov 13 07:12 pm Nov 13 4:12 pm
2678.16 11/13/2014 19:12:00 Nov 13 02:12 pm Nov 13 11:12 am
2713.98 11/13/2014 17:12:32 Nov 13 12:12 pm Nov 13 9:12 am
2642.76 11/13/2014 16:12:48 Nov 13 11:12 am Nov 13 8:12 am
2633.39 11/13/2014 15:13:04 Nov 13 10:13 am Nov 13 7:13 am
2649.76 11/13/2014 14:11:12 Nov 13 09:11 am Nov 13 6:11 am
2840.41 11/13/2014 13:11:28 Nov 13 08:11 am Nov 13 5:11 am
2930.41 11/13/2014 12:11:44 Nov 13 07:11 am Nov 13 4:11 am
2867.41 11/13/2014 11:12:00 Nov 13 06:12 am Nov 13 3:12 am
2828.74 11/13/2014 10:12:16 Nov 13 05:12 am Nov 13 2:12 am
2867.41 11/13/2014 09:12:32 Nov 13 04:12 am Nov 13 1:12 am
2867.41 11/13/2014 07:13:04 Nov 13 02:13 am Nov 12 11:13 pm
2919.41 11/13/2014 06:11:12 Nov 13 01:11 am Nov 12 10:11 pm
2919.41 11/13/2014 05:11:28 Nov 13 12:11 am Nov 12 9:11 pm
2936.41 11/13/2014 03:12:00 Nov 12 10:12 pm Nov 12 7:12 pm
2961.41 11/13/2014 02:12:16 Nov 12 09:12 pm Nov 12 6:12 pm
3147.98 11/13/2014 01:12:32 Nov 12 08:12 pm Nov 12 5:12 pm
3205.98 11/13/2014 00:12:48 Nov 12 07:12 pm Nov 12 4:12 pm
3292.98 11/12/2014 22:11:12 Nov 12 05:11 pm Nov 12 2:11 pm
3289.98 11/12/2014 21:11:28 Nov 12 04:11 pm Nov 12 1:11 pm
3296.98 11/12/2014 20:11:44 Nov 12 03:11 pm Nov 12 12:11 pm
3306.98 11/12/2014 19:12:00 Nov 12 02:12 pm Nov 12 11:12 am
3316.95 11/12/2014 17:12:32 Nov 12 12:12 pm Nov 12 9:12 am
3307.03 11/12/2014 16:12:48 Nov 12 11:12 am Nov 12 8:12 am
3316.98 11/12/2014 15:13:04 Nov 12 10:13 am Nov 12 7:13 am
3275.37 11/12/2014 14:11:12 Nov 12 09:11 am Nov 12 6:11 am
3318.03 11/12/2014 13:11:28 Nov 12 08:11 am Nov 12 5:11 am
3322.03 11/12/2014 12:11:44 Nov 12 07:11 am Nov 12 4:11 am
3334.98 11/12/2014 11:12:00 Nov 12 06:12 am Nov 12 3:12 am
3319.10 11/12/2014 10:12:16 Nov 12 05:12 am Nov 12 2:12 am
3319.10 11/12/2014 09:12:32 Nov 12 04:12 am Nov 12 1:12 am
3316.17 11/12/2014 08:12:48 Nov 12 03:12 am Nov 12 12:12 am
3316.17 11/12/2014 07:13:04 Nov 12 02:13 am Nov 11 11:13 pm
3330.10 11/12/2014 06:11:12 Nov 12 01:11 am Nov 11 10:11 pm
3331.17 11/12/2014 05:11:28 Nov 12 12:11 am Nov 11 9:11 pm
3335.17 11/12/2014 03:12:00 Nov 11 10:12 pm Nov 11 7:12 pm
3342.17 11/12/2014 02:12:16 Nov 11 09:12 pm Nov 11 6:12 pm
3350.17 11/12/2014 00:12:48 Nov 11 07:12 pm Nov 11 4:12 pm
3340.27 11/11/2014 23:13:04 Nov 11 06:13 pm Nov 11 3:13 pm
3368.10 11/11/2014 22:11:12 Nov 11 05:11 pm Nov 11 2:11 pm
3371.10 11/11/2014 21:11:28 Nov 11 04:11 pm Nov 11 1:11 pm
3373.17 11/11/2014 20:11:44 Nov 11 03:11 pm Nov 11 12:11 pm
4452.68 11/11/2014 18:12:16 Nov 11 01:12 pm Nov 11 10:12 am
4456.68 11/11/2014 17:12:32 Nov 11 12:12 pm Nov 11 9:12 am
3961.48 11/11/2014 16:12:48 Nov 11 11:12 am Nov 11 8:12 am

Report - Reports of Related Gauges

Reports give the public a chance to report on river conditions throughout the country as well as log the history of a river.

Reports

When River/Gauge Subject Level Reporter
5y181d09h05m Gauley Below the Meadow [WV] Account of 05/26/09 600 cfs Ryan Groth

Linked Reaches

Click a heading to sort. Hover over a heading for help.
River Name/Section Class Level running? Updated
Gauley [WV] 8 (Middle). Mason Branch to Bucklick Branch III+(IV) 2348 cfs
0 cfs/hr
R3-
Runnable
01h57m
Gauley [WV] 9 (Lower). Bucklick Branch to Swiss III-IV(V) 2480 cfs
0 cfs/hr
R0-
Lower Runnable
01h10m

Associated Gauges

Disclaimer Data Sources

Gauley at Summersville (cfs) (AW#8515)

2040 cfs 00h42m

MEADOW RIVER AT NALLEN, WV (AW#51285)

311 cfs 00h55m

MEADOW RIVER AT NALLEN, WV (AW#51285)

4.78 ft 00h55m